QPF
0.02 0.04 0.03 0.03 0.02 0.03 0.04 0.07 0.06 0.08 0.08 0.08 0.07 0.07 0.06 0.06 0.06 0.04 0.03 0.03 0.03 0.02 0.02 0.03 0.03 0.04 0.03 0.04 0.06 0.07 0.07 0.07 0.06 0.05 0.05 0.06 0.05 0.04
0.04 0.04 0.03 0.02 0.02 0.02 0.02 0.03 0.04 0.05 0.07 0.07 0.06 0.07 0.06 0.05 0.07 0.05 0.05 0.04 0.03 0.03 0.02 0.02 0.02 0.03 0.04 0.04 0.04 0.06 0.05 0.05 0.05 0.04 0.03 0.03 0.03 0.03
0.03 0.03 0.03 0.03 0.03 0.02 0.01 0.01 0.02 0.03 0.04 0.05 0.04 0.05 0.04 0.06 0.08 0.07 0.06 0.05 0.04 0.04 0.03 0.02 0.02 0.02 0.03 0.03 0.03 0.04 0.05 0.04 0.04 0.04 0.03 0.03 0.03 0.03
0.05 0.05 0.04 0.04 0.04 0.03 0.02 0.02 0.02 0.03 0.03 0.04 0.03 0.03 0.03 0.04 0.06 0.07 0.07 0.06 0.05 0.06 0.04 0.02 0.02 0.02 0.02 0.02 0.03 0.03 0.04 0.05 0.04 0.03 0.03 0.04 0.04 0.04
0.06 0.05 0.04 0.04 0.04 0.03 0.03 0.02 0.02 0.02 0.03 0.04 0.03 0.02 0.02 0.02 0.03 0.04 0.05 0.05 0.04 0.05 0.05 0.03 0.02 0.02 0.02 0.02 0.02 0.03 0.05 0.06 0.05 0.03 0.03 0.03 0.03 0.04
0.04 0.04 0.04 0.04 0.04 0.04 0.03 0.03 0.04 0.04 0.04 0.04 0.04 0.03 0.02 0.02 0.02 0.03 0.03 0.03 0.03 0.03 0.05 0.05 0.03 0.02 0.01 0.01 0.02 0.03 0.06 0.08 0.07 0.05 0.04 0.03 0.03 0.02
0.05 0.04 0.04 0.05 0.05 0.04 0.02 0.03 0.03 0.03 0.03 0.04 0.04 0.04 0.04 0.03 0.03 0.03 0.03 0.03 0.03 0.03 0.04 0.05 0.04 0.03 0.01 0.01 0.01 0.01 0.03 0.06 0.08 0.07 0.04 0.03 0.03 0.03
0.04 0.05 0.04 0.04 0.04 0.05 0.04 0.03 0.02 0.03 0.03 0.04 0.03 0.04 0.04 0.04 0.04 0.04 0.03 0.04 0.05 0.04 0.04 0.04 0.04 0.04 0.03 0.02 0.02 0.02 0.02 0.02 0.04 0.05 0.05 0.04 0.02 0.02
0.03 0.05 0.04 0.03 0.03 0.04 0.03 0.02 0.02 0.02 0.02 0.03 0.03 0.03 0.04 0.04 0.05 0.04 0.04 0.04 0.04 0.04 0.04 0.04 0.05 0.06 0.05 0.04 0.04 0.02 0.02 0.02 0.02 0.03 0.03 0.02 0.02 0.02
0.03 0.04 0.04 0.03 0.02 0.02 0.02 0.02 0.02 0.02 0.02 0.02 0.02 0.02 0.02 0.03 0.03 0.03 0.03 0.03 0.04 0.05 0.05 0.04 0.04 0.05 0.05 0.04 0.03 0.02 0.01 0.01 0.01 0.02 0.02 0.02 0.02 0.02
0.02 0.03 0.02 0.02 0.01 0.01 0.01 0.02 0.02 0.02 0.01 0.01 0.01 0.01 0.02 0.02 0.02 0.03 0.03 0.05 0.06 0.07 0.06 0.04 0.04 0.04 0.04 0.04 0.03 0.02 0.02 0.02 0.02 0.03 0.03 0.02 0.02 0.02
0.03 0.03 0.03 0.02 0.01 0.01 0.01 0.01 0.01 0.02 0.02 0.02 0.02 0.02 0.02 0.02 0.03 0.03 0.04 0.05 0.07 0.08 0.06 0.05 0.04 0.04 0.05 0.06 0.06 0.06 0.04 0.04 0.04 0.04 0.04 0.02 0.02 0.01
0.02 0.02 0.02 0.02 0.02 0.02 0.02 0.01 0.01 0.02 0.02 0.02 0.02 0.02 0.02 0.03 0.04 0.04 0.04 0.04 0.06 0.06 0.04 0.04 0.04 0.04 0.07 0.09 0.10 0.11 0.09 0.06 0.04 0.02 0.02 0.02 0.02 0.02
0.02 0.01 0.01 0.02 0.02 0.02 0.02 0.01 0.02 0.01 0.01 0.01 0.01 0.02 0.02 0.02 0.03 0.04 0.05 0.05 0.06 0.05 0.03 0.03 0.05 0.09 0.12 0.13 0.11 0.08 0.07 0.06 0.05 0.03 0.02 0.02 0.02 0.02
0.02 0.03 0.02 0.01 0.01 0.01 0.02 0.01 0.02 0.02 0.02 0.03 0.03 0.03 0.03 0.02 0.03 0.03 0.04 0.04 0.05 0.05 0.04 0.04 0.05 0.06 0.06 0.05 0.05 0.06 0.06 0.05 0.05 0.04 0.03 0.02 0.02 0.03
0.02 0.03 0.03 0.02 0.01 0.01 0.02 0.02 0.02 0.02 0.03 0.04 0.04 0.04 0.05 0.05 0.04 0.04 0.04 0.04 0.05 0.05 0.05 0.04 0.03 0.03 0.03 0.03 0.04 0.04 0.05 0.06 0.04 0.04 0.03 0.02 0.01 0.02
0.01 0.02 0.02 0.02 0.01 0.01 0.02 0.02 0.02 0.03 0.04 0.04 0.05 0.05 0.05 0.06 0.07 0.05 0.05 0.05 0.06 0.05 0.04 0.05 0.04 0.04 0.04 0.04 0.04 0.04 0.04 0.04 0.04 0.04 0.03 0.02 0.02 0.02
0.01 0.02 0.03 0.02 0.02 0.02 0.02 0.02 0.03 0.04 0.04 0.04 0.04 0.04 0.04 0.04 0.05 0.05 0.04 0.04 0.04 0.04 0.03 0.04 0.05 0.06 0.05 0.03 0.03 0.04 0.04 0.04 0.03 0.03 0.03 0.03 0.02 0.02
0.01 0.02 0.04 0.04 0.03 0.03 0.02 0.02 0.03 0.03 0.03 0.03 0.03 0.03 0.03 0.03 0.04 0.05 0.04 0.04 0.03 0.02 0.03 0.03 0.04 0.04 0.05 0.04 0.03 0.02 0.03 0.03 0.03 0.03 0.04 0.04 0.03 0.02
0.02 0.02 0.04 0.05 0.03 0.03 0.03 0.03 0.03 0.02 0.02 0.02 0.03 0.03 0.02 0.02 0.02 0.03 0.04 0.06 0.05 0.03 0.03 0.03 0.03 0.03 0.05 0.04 0.03 0.02 0.02 0.02 0.03 0.03 0.04 0.05 0.04 0.02
0.02 0.02 0.03 0.03 0.03 0.03 0.03 0.03 0.03 0.02 0.02 0.02 0.03 0.03 0.02 0.02 0.02 0.03 0.03 0.04 0.05 0.05 0.04 0.03 0.03 0.03 0.04 0.05 0.04 0.03 0.03 0.02 0.02 0.03 0.03 0.04 0.04 0.04
0.02 0.02 0.02 0.02 0.03 0.03 0.02 0.02 0.02 0.01 0.02 0.02 0.03 0.03 0.02 0.02 0.02 0.03 0.03 0.03 0.04 0.05 0.05 0.06 0.06 0.05 0.06 0.08 0.06 0.04 0.03 0.02 0.01 0.01 0.01 0.02 0.02 0.03
0.03 0.02 0.02 0.02 0.02 0.02 0.02 0.02 0.02 0.02 0.02 0.02 0.03 0.03 0.02 0.02 0.03 0.05 0.05 0.05 0.05 0.06 0.07 0.07 0.07 0.08 0.08 0.07 0.07 0.05 0.03 0.02 0.02 0.02 0.02 0.01 0.01 0.01
MSLP
1011.67 1012.06 1012.57 1013.16 1013.79 1014.38 1014.87 1015.21 1015.36 1015.33 1015.13 1014.80 1014.39 1013.96 1013.55 1013.22 1012.99 1012.87 1012.86 1012.97 1013.16 1013.41 1013.71 1014.01 1014.31 1014.58 1014.81 1015.00 1015.15 1015.27 1015.38 1015.49 1015.61 1015.75 1015.92 1016.11 1016.32 1016.55
1011.38 1011.81 1012.38 1013.04 1013.74 1014.41 1014.97 1015.37 1015.59 1015.61 1015.44 1015.12 1014.69 1014.22 1013.75 1013.32 1012.98 1012.74 1012.60 1012.57 1012.63 1012.77 1012.96 1013.18 1013.42 1013.66 1013.88 1014.07 1014.25 1014.39 1014.53 1014.66 1014.79 1014.94 1015.11 1015.30 1015.50 1015.72
1011.30 1011.75 1012.33 1013.01 1013.73 1014.41 1015.00 1015.43 1015.68 1015.73 1015.61 1015.32 1014.92 1014.45 1013.97 1013.51 1013.10 1012.77 1012.52 1012.35 1012.28 1012.28 1012.35 1012.47 1012.62 1012.80 1012.99 1013.18 1013.37 1013.54 1013.70 1013.85 1014.01 1014.16 1014.32 1014.50 1014.68 1014.88
1011.44 1011.88 1012.43 1013.08 1013.76 1014.40 1014.96 1015.38 1015.64 1015.72 1015.64 1015.41 1015.07 1014.65 1014.21 1013.76 1013.34 1012.96 1012.63 1012.36 1012.15 1012.02 1011.95 1011.94 1012.00 1012.10 1012.24 1012.41 1012.59 1012.78 1012.96 1013.13 1013.30 1013.45 1013.61 1013.77 1013.93 1014.09
1011.76 1012.15 1012.65 1013.22 1013.81 1014.37 1014.86 1015.24 1015.47 1015.57 1015.53 1015.37 1015.12 1014.80 1014.44 1014.06 1013.67 1013.28 1012.91 1012.57 1012.26 1012.00 1011.80 1011.67 1011.61 1011.62 1011.69 1011.82 1011.98 1012.17 1012.35 1012.53 1012.70 1012.86 1013.00 1013.13 1013.26 1013.38
1012.17 1012.50 1012.92 1013.38 1013.86 1014.31 1014.70 1015.00 1015.20 1015.29 1015.29 1015.21 1015.06 1014.86 1014.62 1014.35 1014.04 1013.70 1013.33 1012.95 1012.56 1012.20 1011.89 1011.63 1011.46 1011.37 1011.36 1011.43 1011.56 1011.72 1011.90 1012.07 1012.23 1012.38 1012.50 1012.60 1012.69 1012.77
1012.56 1012.84 1013.16 1013.52 1013.88 1014.21 1014.49 1014.70 1014.84 1014.93 1014.96 1014.95 1014.91 1014.84 1014.74 1014.59 1014.39 1014.12 1013.79 1013.41 1012.99 1012.56 1012.16 1011.80 1011.53 1011.34 1011.25 1011.24 1011.31 1011.44 1011.59 1011.74 1011.88 1012.00 1012.10 1012.17 1012.21 1012.25
1012.84 1013.07 1013.33 1013.60 1013.85 1014.07 1014.24 1014.37 1014.46 1014.52 1014.57 1014.62 1014.68 1014.72 1014.75 1014.73 1014.65 1014.48 1014.22 1013.87 1013.45 1013.00 1012.54 1012.11 1011.75 1011.48 1011.30 1011.23 1011.23 1011.30 1011.41 1011.52 1011.63 1011.72 1011.78 1011.82 1011.83 1011.83
1012.96 1013.18 1013.41 1013.61 1013.79 1013.92 1014.01 1014.06 1014.09 1014.12 1014.18 1014.26 1014.38 1014.52 1014.65 1014.75 1014.78 1014.71 1014.53 1014.25 1013.86 1013.41 1012.93 1012.47 1012.06 1011.73 1011.49 1011.34 1011.28 1011.29 1011.34 1011.41 1011.47 1011.52 1011.55 1011.55 1011.53 1011.50
1012.93 1013.17 1013.39 1013.58 1013.72 1013.80 1013.82 1013.81 1013.79 1013.78 1013.82 1013.91 1014.06 1014.25 1014.45 1014.63 1014.74 1014.76 1014.67 1014.46 1014.13 1013.73 1013.28 1012.82 1012.40 1012.04 1011.75 1011.56 1011.44 1011.39 1011.37 1011.39 1011.40 1011.41 1011.40 1011.37 1011.32 1011.26
1012.78 1013.07 1013.33 1013.53 1013.67 1013.72 1013.71 1013.66 1013.59 1013.54 1013.54 1013.60 1013.73 1013.93 1014.15 1014.36 1014.53 1014.62 1014.61 1014.48 1014.24 1013.90 1013.52 1013.11 1012.71 1012.36 1012.06 1011.84 1011.68 1011.57 1011.51 1011.46 1011.42 1011.38 1011.33 1011.27 1011.20 1011.12
1012.58 1012.93 1013.24 1013.49 1013.65 1013.71 1013.68 1013.60 1013.49 1013.39 1013.33 1013.34 1013.42 1013.58 1013.78 1013.99 1014.19 1014.32 1014.37 1014.31 1014.16 1013.92 1013.62 1013.29 1012.96 1012.65 1012.38 1012.16 1011.98 1011.84 1011.72 1011.63 1011.54 1011.45 1011.37 1011.28 1011.18 1011.08
1012.35 1012.77 1013.14 1013.44 1013.63 1013.71 1013.69 1013.59 1013.44 1013.29 1013.17 1013.11 1013.13 1013.22 1013.37 1013.55 1013.73 1013.88 1013.98 1013.99 1013.93 1013.80 1013.61 1013.38 1013.14 1012.91 1012.69 1012.49 1012.31 1012.15 1012.00 1011.87 1011.74 1011.61 1011.49 1011.37 1011.26 1011.15
1012.11 1012.58 1013.00 1013.34 1013.57 1013.68 1013.66 1013.56 1013.39 1013.20 1013.02 1012.89 1012.84 1012.85 1012.94 1013.07 1013.23 1013.38 1013.50 1013.58 1013.60 1013.57 1013.49 1013.38 1013.25 1013.10 1012.95 1012.80 1012.64 1012.48 1012.33 1012.16 1012.00 1011.85 1011.70 1011.56 1011.44 1011.32
1011.80 1012.30 1012.76 1013.12 1013.38 1013.51 1013.51 1013.41 1013.24 1013.02 1012.82 1012.64 1012.53 1012.49 1012.51 1012.60 1012.72 1012.86 1013.01 1013.13 1013.22 1013.28 1013.30 1013.30 1013.27 1013.22 1013.15 1013.05 1012.94 1012.80 1012.64 1012.47 1012.30 1012.13 1011.96 1011.82 1011.69 1011.56
1011.37 1011.87 1012.33 1012.70 1012.97 1013.12 1013.14 1013.06 1012.91 1012.71 1012.50 1012.32 1012.18 1012.11 1012.11 1012.16 1012.26 1012.39 1012.54 1012.69 1012.84 1012.97 1013.08 1013.16 1013.23 1013.26 1013.26 1013.23 1013.16 1013.06 1012.92 1012.76 1012.59 1012.42 1012.25 1012.11 1011.98 1011.87
1010.76 1011.23 1011.66 1012.02 1012.29 1012.45 1012.50 1012.46 1012.35 1012.20 1012.04 1011.89 1011.79 1011.73 1011.72 1011.77 1011.87 1012.00 1012.15 1012.32 1012.49 1012.66 1012.83 1012.98 1013.11 1013.21 1013.28 1013.31 1013.29 1013.23 1013.12 1012.99 1012.84 1012.69 1012.54 1012.41 1012.30 1012.20
1009.92 1010.33 1010.71 1011.04 1011.29 1011.47 1011.56 1011.58 1011.55 1011.48 1011.41 1011.35 1011.32 1011.32 1011.36 1011.44 1011.55 1011.69 1011.85 1012.02 1012.20 1012.39 1012.58 1012.77 1012.93 1013.08 1013.20 1013.27 1013.30 1013.29 1013.23 1013.14 1013.03 1012.91 1012.80 1012.70 1012.62 1012.55
1008.85 1009.19 1009.51 1009.80 1010.04 1010.22 1010.36 1010.45 1010.52 1010.57 1010.62 1010.68 1010.77 1010.87 1010.99 1011.13 1011.28 1011.45 1011.61 1011.79 1011.97 1012.15 1012.34 1012.53 1012.71 1012.88 1013.02 1013.14 1013.21 1013.25 1013.24 1013.21 1013.15 1013.09 1013.03 1012.97 1012.93 1012.89
1007.62 1007.88 1008.13 1008.37 1008.59 1008.78 1008.97 1009.14 1009.31 1009.50 1009.69 1009.90 1010.13 1010.36 1010.59 1010.82 1011.03 1011.23 1011.41 1011.59 1011.75 1011.92 1012.09 1012.26 1012.44 1012.61 1012.78 1012.92 1013.04 1013.12 1013.18 1013.21 1013.21 1013.21 1013.21 1013.21 1013.22 1013.23
1006.29 1006.47 1006.66 1006.85 1007.05 1007.25 1007.47 1007.72 1008.01 1008.32 1008.66 1009.03 1009.40 1009.78 1010.13 1010.45 1010.74 1010.99 1011.20 1011.37 1011.53 1011.68 1011.82 1011.98 1012.14 1012.31 1012.48 1012.65 1012.80 1012.93 1013.05 1013.14 1013.22 1013.28 1013.34 1013.40 1013.46 1013.52
1004.94 1005.06 1005.19 1005.34 1005.51 1005.71 1005.97 1006.28 1006.66 1007.09 1007.56 1008.07 1008.59 1009.09 1009.57 1010.00 1010.37 1010.67 1010.92 1011.11 1011.26 1011.40 1011.53 1011.66 1011.81 1011.97 1012.15 1012.33 1012.51 1012.69 1012.86 1013.01 1013.15 1013.28 1013.40 1013.52 1013.63 1013.73
1003.67 1003.73 1003.81 1003.91 1004.05 1004.26 1004.53 1004.89 1005.33 1005.85 1006.43 1007.05 1007.69 1008.32 1008.90 1009.43 1009.87 1010.24 1010.53 1010.75 1010.92 1011.06 1011.18 1011.31 1011.44 1011.60 1011.78 1011.98 1012.19 1012.40 1012.61 1012.81 1013.00 1013.18 1013.35 1013.52 1013.67 1013.81
Thickness
5735 5734 5732 5731 5731 5729 5727 5723 5715 5708 5709 5714 5716 5719 5719 5717 5715 5714 5714 5713 5711 5711 5710 5709 5708 5708 5707 5706 5705 5705 5704 5704 5704 5704 5704 5703 5703 5703
5730 5728 5726 5726 5725 5725 5723 5721 5717 5711 5706 5709 5711 5713 5713 5712 5710 5710 5709 5708 5707 5706 5705 5705 5704 5703 5702 5701 5701 5700 5700 5699 5699 5699 5699 5699 5699 5699
5725 5723 5720 5720 5719 5718 5717 5715 5712 5708 5702 5704 5707 5707 5706 5705 5704 5704 5703 5702 5701 5701 5700 5700 5699 5698 5697 5697 5696 5695 5695 5694 5694 5694 5694 5694 5694 5693
5719 5717 5715 5715 5712 5711 5710 5708 5706 5704 5699 5696 5698 5699 5699 5699 5698 5697 5698 5697 5697 5696 5696 5696 5695 5694 5693 5692 5691 5690 5690 5690 5689 5689 5689 5689 5689 5688
5714 5711 5710 5708 5706 5704 5703 5701 5700 5700 5696 5693 5692 5692 5692 5692 5691 5691 5691 5691 5691 5691 5691 5690 5689 5689 5688 5687 5686 5685 5685 5684 5684 5684 5683 5683 5683 5682
5710 5708 5706 5703 5701 5699 5698 5695 5694 5691 5690 5687 5685 5685 5684 5684 5683 5681 5681 5682 5683 5684 5684 5683 5683 5682 5682 5682 5681 5680 5679 5679 5678 5678 5677 5677 5677 5676
5704 5703 5701 5699 5697 5694 5692 5689 5687 5684 5683 5681 5678 5677 5675 5674 5673 5674 5673 5674 5676 5677 5677 5677 5677 5676 5676 5675 5674 5674 5673 5672 5671 5671 5671 5671 5671 5670
5698 5697 5696 5694 5692 5689 5687 5684 5682 5679 5676 5673 5671 5669 5669 5668 5668 5668 5666 5665 5665 5669 5669 5669 5671 5669 5669 5669 5668 5668 5667 5665 5665 5664 5664 5664 5664 5664
5694 5692 5691 5691 5687 5684 5681 5679 5677 5676 5673 5670 5667 5665 5664 5664 5662 5661 5660 5658 5659 5662 5661 5660 5663 5662 5663 5662 5662 5661 5660 5659 5658 5657 5656 5657 5658 5657
5690 5688 5685 5683 5681 5678 5676 5674 5672 5670 5669 5667 5665 5663 5663 5661 5658 5656 5655 5655 5656 5657 5656 5652 5655 5656 5657 5656 5655 5654 5653 5652 5651 5651 5650 5650 5651 5651
5686 5684 5681 5678 5675 5672 5670 5667 5666 5665 5665 5663 5661 5659 5657 5655 5653 5650 5648 5646 5645 5648 5649 5647 5648 5648 5649 5650 5649 5648 5647 5645 5644 5643 5644 5643 5643 5644
5681 5679 5676 5673 5669 5666 5663 5661 5659 5659 5658 5657 5655 5653 5652 5650 5648 5645 5643 5639 5638 5638 5642 5640 5640 5639 5639 5643 5643 5642 5640 5639 5638 5637 5637 5637 5636 5635
5674 5673 5670 5666 5663 5660 5658 5656 5655 5653 5652 5650 5649 5648 5647 5645 5644 5641 5639 5636 5633 5632 5636 5634 5632 5631 5630 5632 5634 5635 5635 5634 5632 5631 5631 5630 5630 5629
5668 5667 5665 5660 5657 5655 5653 5652 5650 5647 5646 5644 5644 5642 5641 5640 5639 5637 5635 5633 5631 5630 5630 5629 5626 5625 5623 5623 5624 5626 5627 5627 5626 5625 5624 5624 5624 5623
5662 5661 5658 5655 5652 5650 5649 5647 5645 5643 5641 5639 5638 5637 5636 5636 5634 5632 5630 5628 5627 5626 5626 5624 5622 5621 5618 5617 5617 5618 5619 5619 5619 5618 5618 5618 5618 5617
5653 5652 5651 5649 5647 5645 5644 5642 5641 5639 5637 5635 5633 5633 5632 5630 5627 5625 5623 5622 5620 5620 5620 5620 5618 5616 5614 5613 5612 5612 5612 5611 5612 5612 5612 5611 5611 5611
5646 5645 5643 5642 5641 5640 5639 5638 5636 5634 5632 5631 5629 5627 5625 5623 5622 5621 5618 5617 5614 5614 5613 5614 5613 5612 5610 5608 5606 5606 5607 5606 5607 5606 5606 5605 5605 5604
5639 5639 5639 5638 5636 5635 5634 5632 5631 5629 5627 5626 5624 5622 5620 5618 5616 5616 5614 5612 5610 5610 5609 5608 5606 5604 5602 5602 5602 5602 5602 5601 5602 5602 5601 5598 5597 5598
5633 5634 5634 5633 5632 5631 5630 5628 5627 5626 5624 5622 5620 5618 5616 5614 5612 5610 5609 5608 5606 5606 5605 5604 5602 5598 5594 5595 5596 5597 5596 5596 5595 5595 5595 5594 5592 5592
5631 5630 5630 5629 5628 5627 5626 5624 5623 5621 5619 5617 5615 5613 5611 5609 5607 5605 5605 5603 5602 5601 5600 5599 5598 5596 5593 5592 5591 5591 5592 5591 5590 5589 5589 5589 5588 5587
5627 5626 5625 5624 5624 5622 5621 5620 5618 5616 5614 5612 5611 5609 5607 5604 5603 5601 5600 5598 5597 5596 5594 5594 5595 5594 5592 5589 5587 5587 5588 5587 5587 5585 5584 5583 5582 5581
5622 5621 5620 5619 5618 5616 5615 5614 5612 5611 5609 5608 5606 5604 5602 5600 5598 5597 5596 5594 5593 5592 5592 5591 5591 5590 5588 5584 5583 5583 5583 5583 5582 5582 5581 5580 5578 5578
5618 5617 5616 5615 5613 5611 5609 5608 5607 5606 5605 5603 5602 5600 5597 5595 5594 5593 5592 5591 5589 5588 5587 5586 5586 5585 5584 5582 5581 5580 5580 5579 5578 5576 5575 5576 5576 5576